Regional Weather Roundup
Issued by NWS

Home | Current Version | Previous Version | Text Only | Print | Product List | Glossary Off
Versions: 1 2 3 4 5 6 7 8 9 10 11 12 13 14 15 16 17 18 19 20 21 22 23 24 25 26 27 28 29 30 31 32 33 34 35 36 37 38 39 40 41 42 43 44 45 46 47 48 49 50

000
ASUS43 KOAX 270710
RWRNE

WEATHER ROUNDUP FOR NEBRASKA
NATIONAL WEATHER SERVICE OMAHA NE
200 AM CDT SUN MAY 27 2018

NOTES: SATELLITE DATA IS BEING USED TO AUGMENT CLOUD COVER ABOVE
       12000 FEET.
       "FAIR" INDICATES FEW OR NO CLOUDS BELOW 12,000 FEET WITH NO
       SIGNIFICANT WEATHER AND/OR OBSTRUCTIONS TO VISIBILITY.


NEZ001>004-019>022-054>056-270800-
NEBRASKA PANHANDLE

CITY           SKY/WX    TMP DP  RH WIND       PRES   REMARKS
SCOTTSBLUFF    CLOUDY    75  47  36 S13       29.76R
ALLIANCE       CLOUDY    70  49  47 SE15      29.78S
CHADRON        CLOUDY    77  46  33 S28G40    29.68F
GORDON         FAIR      77  48  35 S15G23    29.77S
KIMBALL        CLOUDY    68  45  43 S13       29.82S
SIDNEY         MOCLDY    70  45  40 S17       29.81S
$$

NEZ057>060-069>072-079>082-270800-
SOUTHWEST NEBRASKA

CITY           SKY/WX    TMP DP  RH WIND       PRES   REMARKS
NORTH PLATTE   CLOUDY    74  53  48 S6        29.81S
IMPERIAL       MOCLDY    72  51  47 S12       29.81S
LEXINGTON      MOCLDY    73  55  54 S12       29.83R
MCCOOK         CLOUDY    71  53  52 S10       29.82R
OGALLALA       CLOUDY    73  50  44 S14G21    29.79F
$$

NEZ005>010-023>029-035>040-094-270800-
NORTH CENTRAL NEBRASKA

CITY           SKY/WX    TMP DP  RH WIND       PRES   REMARKS
VALENTINE      MOCLDY    74  56  53 S7        29.76F
AINSWORTH      PTCLDY    67  59  75 S7        29.79F
BROKEN BOW     MOCLDY    74  57  55 S12       29.81F
O`NEILL        CLEAR     76  61  58 SE8       29.79F
ORD            PTCLDY    70  59  68 S10       29.78S
THEDFORD       CLOUDY    73  54  51 S13       29.81S
$$

NEZ041-046>049-061>064-073>077-083>087-270800-
SOUTH CENTRAL NEBRASKA

CITY           SKY/WX    TMP DP  RH WIND       PRES   REMARKS
GRAND ISLAND   CLEAR     79  57  46 S12       29.81S
AURORA         CLEAR     75  57  54 SW9       29.81S
HASTINGS       CLEAR     75  58  55 S5        29.83S
HEBRON         PTCLDY    74  61  62 CALM      29.81S
HOLDREGE       PTCLDY    68  57  67 S7        29.83S
KEARNEY        PTCLDY    75  57  53 S13       29.82F
YORK           CLEAR     75  59  57 SW8       29.80F
$$

NEZ011>018-030>034-042>045-270800-
NORTHEAST NEBRASKA

CITY           SKY/WX    TMP DP  RH WIND       PRES   REMARKS
NORFOLK        CLEAR     71  59  65 CALM      29.78S
ALBION         CLEAR     80  59  48 CALM      29.80S
COLUMBUS       CLEAR     78  60  53 W3        29.79S
FREMONT        CLEAR     79  58  47 SE5       29.79S
TEKAMAH        CLEAR     71  62  73 CALM      29.77S
WAYNE          CLEAR     69  59  71 CALM      29.78F
$$

NEZ050>053-065>068-078-088>093-270800-
SOUTHEAST NEBRASKA

CITY           SKY/WX    TMP DP  RH WIND       PRES   REMARKS
LINCOLN        CLEAR     76  63  64 S3        29.79S
OMAHA EPPLEY   CLOUDY    74  64  71 CALM      29.77S
BEATRICE       PTCLDY    78  63  61 CALM      29.81R
FALLS CITY     CLEAR     78  63  59 SW7       29.79R
NEBRASKA CITY  CLEAR     76  60  57 W10       29.79S
PLATTSMOUTH    CLOUDY    77  58  52 CALM      29.78F
$$

NEZ044-045-051>053-067-270800-
OMAHA AREA

CITY           SKY/WX    TMP DP  RH WIND       PRES   REMARKS
OMAHA EPPLEY   CLOUDY    74  64  71 CALM      29.77S
FREMONT        CLEAR     79  58  47 SE5       29.79S
MILLARD        CLOUDY    73  65  75 CALM      29.78S
OFFUTT AFB     CLOUDY    66  62  86 CALM      29.77S
PLATTSMOUTH    CLOUDY    77  58  52 CALM      29.78F
WAHOO          FAIR      77  56  47 S3        29.79S
$$



USA.gov is the U.S. government's official web portal to all federal, state and local government web resources and services.